GW3580 Weather Reports


time (UTC)temp
C
wind
direction
speed
KPH
gust
KPH
rain 1hr
cm
rain 24hr
cm
rain mn
cm
humidity
%
barometer
mb
20260903012135 27 281 3.2 6.4 0.00 0.00 0.00 31 1013.2
20260903011634 27 278 1.6 1.6 0.00 0.00 0.00 29 1013.1
20260903011129 27 301 3.2 6.4 0.00 0.00 0.00 29 1013.1
20260903010625 27 248 3.2 3.2 0.00 0.00 0.00 30 1013.2
20260903010123 27 247 6.4 8.0 0.00 0.00 0.00 29 1013.1
20260903005618 28 273 4.8 6.4 0.00 0.00 0.00 28 1013.3
20260903005114 27 237 3.2 3.2 0.00 0.00 0.00 29 1013.2
20260903004613 28 250 6.4 8.0 0.00 0.00 0.00 29 1013.3
20260903004108 28 271 4.8 8.0 0.00 0.00 0.00 30 1013.2
20260903003604 28 276 3.2 3.2 0.00 0.00 0.00 28 1013.5
20260903003059 28 252 3.2 3.2 0.00 0.00 0.00 27 1013.3
20260903002554 28 258 1.6 1.6 0.00 0.00 0.00 27 1013.3
20260903002048 28 264 4.8 6.4 0.00 0.00 0.00 27 1013.3
20260903001543 28 265 8.0 9.7 0.00 0.00 0.00 27 1013.4
20260903001043 29 264 4.8 6.4 0.00 0.00 0.00 28 1013.4
20260903000539 29 39 0.0 1.6 0.00 0.00 0.00 24 1013.6
20260903000037 28 54 1.6 3.2 0.00 0.00 0.00 23 1013.7
20260902235532 28 288 1.6 1.6 0.00 0.00 0.00 24 1013.6
20260902235027 28 249 8.0 9.7 0.00 0.00 0.00 22 1013.8
20260902234526 28 330 1.6 1.6 0.00 0.00 0.00 25 1013.6
20260902234025 28 248 3.2 6.4 0.00 0.00 0.00 26 1013.8
20260902233520 28 40 3.2 3.2 0.00 0.00 0.00 25 1013.8
20260902233014 29 279 9.7 11.3 0.00 0.00 0.00 24 1013.9
20260902232514 28 346 3.2 3.2 0.00 0.00 0.00 25 1013.6
20260902232003 28 242 4.8 6.4 0.00 0.00 0.00 25 1013.9
20260902231457 28 275 4.8 6.4 0.00 0.00 0.00 23 1014.0
20260902230952 28 280 3.2 3.2 0.00 0.00 0.00 26 1014.1
20260902230452 28 240 4.8 6.4 0.00 0.00 0.00 25 1013.9
20260902225951 28 240 3.2 3.2 0.00 0.00 0.00 25 1014.0
20260902225446 28 343 0.0 1.6 0.00 0.00 0.00 26 1014.1
20260902224945 28 265 3.2 3.2 0.00 0.00 0.00 24 1014.1
20260902224444 28 260 3.2 3.2 0.00 0.00 0.00 23 1014.4
20260902223942 27 286 3.2 3.2 0.00 0.00 0.00 23 1014.2
20260902223437 28 261 3.2 3.2 0.00 0.00 0.00 24 1014.3
20260902222936 28 241 1.6 3.2 0.00 0.00 0.00 26 1014.4
20260902222435 27 274 8.0 9.7 0.00 0.00 0.00 26 1014.5
20260902221934 28 276 3.2 3.2 0.00 0.00 0.00 28 1014.6
20260902221433 28 244 0.0 1.6 0.00 0.00 0.00 26 1014.6
20260902220929 28 18 1.6 3.2 0.00 0.00 0.00 29 1014.8
20260902220423 27 264 3.2 3.2 0.00 0.00 0.00 28 1014.8
20260902215918 27 255 4.8 8.0 0.00 0.00 0.00 30 1014.7
20260902215414 27 258 11.3 12.9 0.00 0.00 0.00 30 1014.9
20260902214910 27 73 3.2 3.2 0.00 0.00 0.00 29 1014.9
20260902214409 27 344 3.2 3.2 0.00 0.00 0.00 29 1015.1
20260902213903 27 278 4.8 8.0 0.00 0.00 0.00 31 1015.2
20260902213359 27 275 4.8 6.4 0.00 0.00 0.00 31 1015.0
20260902212858 26 267 4.8 6.4 0.00 0.00 0.00 31 1015.3
20260902212354 27 32 3.2 3.2 0.00 0.00 0.00 32 1015.3
20260902211851 27 273 6.4 8.0 0.00 0.00 0.00 32 1015.5
20260902211346 26 287 6.4 8.0 0.00 0.00 0.00 32 1015.4
20260902210841 26 168 1.6 1.6 0.00 0.00 0.00 35 1015.5
20260902210340 26 305 3.2 3.2 0.00 0.00 0.00 31 1015.4
20260902205839 26 247 3.2 3.2 0.00 0.00 0.00 33 1015.6
20260902205334 26 80 0.0 0.0 0.00 0.00 0.00 33 1015.6
20260902204830 26 39 8.0 8.0 0.00 0.00 0.00 33 1015.9
20260902204324 26 27 3.2 3.2 0.00 0.00 0.00 33 1015.7
20260902203820 26 73 0.0 0.0 0.00 0.00 0.00 33 1015.9
20260902203315 26 12 1.6 1.6 0.00 0.00 0.00 33 1016.0
20260902202814 26 28 1.6 1.6 0.00 0.00 0.00 34 1016.0
20260902202310 26 3 3.2 3.2 0.00 0.00 0.00 34 1016.0
20260902201807 26 322 3.2 3.2 0.00 0.00 0.00 34 1015.9
20260902201301 25 81 1.6 1.6 0.00 0.00 0.00 35 1016.0
20260902200756 25 252 4.8 6.4 0.00 0.00 0.00 38 1016.1
20260902200251 25 266 8.0 11.3 0.00 0.00 0.00 36 1016.1
20260902195747 25 45 1.6 1.6 0.00 0.00 0.00 37 1016.1
20260902195246 23 229 0.0 0.0 0.00 0.00 0.00 38 1016.0
20260902194740 24 239 4.8 6.4 0.00 0.00 0.00 37 1016.0
20260902194235 25 256 3.2 6.4 0.00 0.00 0.00 37 1016.2
20260902193731 25 315 3.2 6.4 0.00 0.00 0.00 38 1016.3
20260902193226 24 5 3.2 6.4 0.00 0.00 0.00 39 1016.5
20260902192724 24 343 1.6 1.6 0.00 0.00 0.00 39 1016.4
20260902192219 23 230 3.2 3.2 0.00 0.00 0.00 41 1016.1
20260902191719 23 48 0.0 1.6 0.00 0.00 0.00 39 1016.7
20260902191213 23 213 3.2 3.2 0.00 0.00 0.00 41 1016.5
20260902190709 23 56 0.0 1.6 0.00 0.00 0.00 41 1016.7
20260902190209 22 272 3.2 3.2 0.00 0.00 0.00 42 1016.6
20260902185704 22 185 1.6 1.6 0.00 0.00 0.00 43 1016.7
20260902185202 22 254 4.8 6.4 0.00 0.00 0.00 43 1016.8
20260902184655 22 252 4.8 8.0 0.00 0.00 0.00 44 1016.9
20260902184151 23 51 0.0 1.6 0.00 0.00 0.00 43 1016.8
20260902183647 22 228 1.6 1.6 0.00 0.00 0.00 44 1016.9
20260902183143 22 43 0.0 0.0 0.00 0.00 0.00 45 1016.9
20260902182639 21 72 1.6 1.6 0.00 0.00 0.00 47 1017.1
20260902182135 21 13 3.2 6.4 0.00 0.00 0.00 47 1017.0
20260902181631 21 228 3.2 8.0 0.00 0.00 0.00 47 1017.0
20260902181130 21 332 0.0 1.6 0.00 0.00 0.00 48 1017.1
20260902180624 21 249 3.2 6.4 0.00 0.00 0.00 49 1017.0
20260902180121 21 246 3.2 6.4 0.00 0.00 0.00 49 1017.4
20260902175620 21 252 3.2 3.2 0.00 0.00 0.00 48 1017.2
20260902175116 21 245 4.8 6.4 0.00 0.00 0.00 48 1017.2
20260902174612 21 48 1.6 1.6 0.00 0.00 0.00 45 1017.1
20260902174107 20 49 3.2 3.2 0.00 0.00 0.00 47 1017.4
20260902173602 20 291 1.6 1.6 0.00 0.00 0.00 48 1017.5
20260902173057 20 284 0.0 0.0 0.00 0.00 0.00 49 1017.3
20260902172551 20 310 3.2 6.4 0.00 0.00 0.00 50 1017.2
20260902172046 20 105 1.6 1.6 0.00 0.00 0.00 51 1017.2
20260902171542 18 80 1.6 1.6 0.00 0.00 0.00 55 1017.4
20260902171037 19 244 3.2 3.2 0.00 0.00 0.00 56 1017.4
20260902170532 20 93 0.0 1.6 0.00 0.00 0.00 53 1017.3
20260902170028 20 261 1.6 1.6 0.00 0.00 0.00 54 1017.2
20260902165527 19 103 0.0 1.6 0.00 0.00 0.00 55 1017.2
20260902165022 18 13 3.2 3.2 0.00 0.00 0.00 56 1017.2
20260902164517 18 107 1.6 1.6 0.00 0.00 0.00 58 1017.2
20260902164016 18 47 3.2 3.2 0.00 0.00 0.00 57 1017.2
20260902163512 18 76 0.0 1.6 0.00 0.00 0.00 58 1017.2
20260902163010 18 48 0.0 0.0 0.00 0.00 0.00 57 1017.3
20260902162510 18 50 0.0 0.0 0.00 0.00 0.00 58 1017.1
20260902162005 18 98 0.0 0.0 0.00 0.00 0.00 60 1017.2
20260902161500 18 60 3.2 3.2 0.00 0.00 0.00 59 1017.2
20260902160956 18 344 0.0 1.6 0.00 0.00 0.00 59 1017.2
20260902160451 17 41 0.0 0.0 0.00 0.00 0.00 61 1017.4
20260902155949 16 306 1.6 1.6 0.00 0.00 0.00 63 1017.6
20260902155445 17 248 4.8 6.4 0.00 0.00 0.00 63 1017.7
20260902154938 17 48 0.0 0.0 0.00 0.00 0.00 63 1017.6
20260902154434 17 41 1.6 1.6 0.00 0.00 0.00 63 1017.6
20260902153933 17 45 0.0 0.0 0.00 0.00 0.00 64 1017.6
20260902153432 16 52 0.0 1.6 0.00 0.00 0.00 63 1017.4
20260902152928 16 51 1.6 1.6 0.00 0.00 0.00 63 1017.4
20260902152424 16 222 1.6 1.6 0.00 0.00 0.00 65 1017.2
20260902151919 16 50 0.0 0.0 0.00 0.00 0.00 66 1017.2
20260902151415 16 220 1.6 1.6 0.00 0.00 0.00 68 1017.2
20260902150909 15 319 3.2 3.2 0.00 0.00 0.00 68 1016.9
20260902150405 15 295 1.6 1.6 0.00 0.00 0.00 68 1017.1
20260902145904 15 279 1.6 1.6 0.00 0.00 0.00 67 1016.9
20260902145400 15 313 0.0 0.0 0.00 0.00 0.00 66 1017.0
20260902144855 16 312 1.6 1.6 0.00 0.00 0.00 65 1017.0
20260902144351 15 37 0.0 0.0 0.00 0.00 0.00 66 1016.9
20260902143851 15 37 0.0 0.0 0.00 0.00 0.00 69 1016.6
20260902143346 15 37 0.0 0.0 0.00 0.00 0.00 70 1016.5
20260902142842 14 36 1.6 1.6 0.00 0.00 0.00 72 1016.5
20260902142337 13 9 0.0 0.0 0.00 0.00 0.00 73 1016.4
20260902141832 13 10 0.0 0.0 0.00 0.00 0.00 74 1016.4
20260902141328 13 10 0.0 0.0 0.00 0.00 0.00 74 1016.4
20260902140827 13 9 0.0 0.0 0.00 0.00 0.00 75 1016.3
20260902140323 13 9 0.0 0.0 0.00 0.00 0.00 75 1016.1
20260902135822 13 9 0.0 0.0 0.00 0.00 0.00 77 1016.2
20260902135318 13 10 0.0 0.0 0.00 0.00 0.00 77 1016.2
20260902134817 13 9 0.0 0.0 0.00 0.00 0.00 77 1016.0
20260902134313 13 6 0.0 0.0 0.00 0.00 0.00 77 1016.1
20260902133808 13 3 0.0 0.0 0.00 0.00 0.00 77 1016.1
20260902133307 13 3 0.0 0.0 0.00 0.00 0.00 76 1015.9
20260902132803 13 294 0.0 0.0 0.00 0.00 0.00 76 1015.9
20260902132258 13 302 0.0 0.0 0.00 0.00 0.00 76 1015.8
20260902131753 13 302 0.0 1.6 0.00 0.00 0.00 76 1015.5
20260902131250 13 309 0.0 0.0 0.00 0.00 0.00 76 1015.7
20260902130749 13 288 0.0 0.0 0.00 0.00 0.00 76 1015.6
20260902130245 13 337 0.0 1.6 0.00 0.00 0.00 76 1015.5
20260902125740 13 323 0.0 0.0 0.00 0.00 0.00 76 1015.6
20260902125236 13 14 0.0 0.0 0.00 0.00 0.00 75 1015.6
20260902124732 13 279 0.0 0.0 0.00 0.00 0.00 75 1015.5
20260902124227 13 296 0.0 0.0 0.00 0.00 0.00 74 1015.5
20260902123717 13 259 0.0 1.6 0.00 0.00 0.00 74 1015.5
20260902123213 13 319 0.0 0.0 0.00 0.00 0.00 73 1015.4
20260902122712 13 304 0.0 1.6 0.00 0.00 0.00 73 1015.5
20260902122207 13 271 1.6 1.6 0.00 0.00 0.00 72 1015.4
20260902121702 13 292 1.6 1.6 0.00 0.00 0.00 72 1015.6
20260902121156 13 328 1.6 1.6 0.00 0.00 0.00 72 1015.5
20260902120653 13 316 0.0 0.0 0.00 0.00 0.00 71 1015.4
20260902120149 13 268 1.6 1.6 0.00 0.00 0.00 71 1015.6
20260902115649 13 247 4.8 6.4 0.00 0.00 0.00 72 1015.6
20260902115145 13 227 4.8 6.4 0.00 0.00 0.00 72 1015.6
20260902114641 13 287 1.6 3.2 0.00 0.00 0.00 71 1015.6
20260902114136 13 274 3.2 3.2 0.00 0.00 0.00 72 1015.8
20260902113631 13 286 1.6 1.6 0.00 0.00 0.00 72 1015.6
20260902113126 13 45 0.0 1.6 0.00 0.00 0.00 71 1015.6
20260902112621 13 310 3.2 3.2 0.00 0.00 0.00 71 1015.3
20260902112118 13 257 3.2 6.4 0.00 0.00 0.00 71 1015.7
20260902111608 13 219 1.6 1.6 0.00 0.00 0.00 71 1015.3
20260902111103 13 247 1.6 3.2 0.00 0.00 0.00 71 1015.5
20260902110559 14 286 3.2 3.2 0.00 0.00 0.00 70 1015.4
20260902110055 14 263 3.2 3.2 0.00 0.00 0.00 69 1015.2
20260902105555 14 265 1.6 3.2 0.00 0.00 0.00 69 1015.3
20260902105055 14 263 4.8 8.0 0.00 0.00 0.00 69 1015.3
20260902104550 14 246 4.8 6.4 0.00 0.00 0.00 68 1015.4
20260902104045 14 234 4.8 6.4 0.00 0.00 0.00 67 1015.2
20260902103540 15 243 4.8 6.4 0.00 0.00 0.00 67 1015.3
20260902103035 15 258 4.8 6.4 0.00 0.00 0.00 66 1015.0
20260902102532 15 253 4.8 8.0 0.00 0.00 0.00 65 1015.2
20260902102029 15 254 3.2 3.2 0.00 0.00 0.00 65 1015.2
20260902101524 15 270 3.2 3.2 0.00 0.00 0.00 64 1015.1
20260902101023 15 297 1.6 1.6 0.00 0.00 0.00 63 1015.2
20260902100517 15 277 4.8 6.4 0.00 0.00 0.00 63 1015.2
20260902100012 15 259 3.2 3.2 0.00 0.00 0.00 64 1015.0
20260902095511 15 277 1.6 1.6 0.00 0.00 0.00 63 1015.1
20260902095010 16 269 1.6 1.6 0.00 0.00 0.00 63 1015.2
20260902094506 16 256 3.2 3.2 0.00 0.00 0.00 63 1015.0
20260902094002 16 265 3.2 3.2 0.00 0.00 0.00 63 1015.0
20260902093456 16 277 0.0 1.6 0.00 0.00 0.00 63 1015.0
20260902092955 16 324 1.6 1.6 0.00 0.00 0.00 63 1015.0
20260902092451 16 261 3.2 3.2 0.00 0.00 0.00 62 1015.0
20260902091951 16 245 3.2 3.2 0.00 0.00 0.00 62 1015.0
20260902091446 16 251 3.2 3.2 0.00 0.00 0.00 62 1015.0
20260902090943 16 247 1.6 1.6 0.00 0.00 0.00 62 1015.2
20260902090438 16 245 3.2 3.2 0.00 0.00 0.00 62 1015.3
20260902085936 16 260 1.6 1.6 0.00 0.00 0.00 61 1015.4
20260902085432 16 249 3.2 6.4 0.00 0.00 0.00 61 1015.3
20260902084927 16 286 1.6 3.2 0.00 0.00 0.00 60 1015.3
20260902084423 16 264 3.2 3.2 0.00 0.00 0.00 60 1015.4
20260902083919 16 213 3.2 6.4 0.00 0.00 0.00 60 1015.3
20260902083419 16 265 3.2 8.0 0.00 0.00 0.00 60 1015.1
20260902082914 16 290 4.8 6.4 0.00 0.00 0.00 59 1015.3
20260902082409 17 244 3.2 3.2 0.00 0.00 0.00 59 1015.4
20260902081906 17 240 3.2 3.2 0.00 0.00 0.00 58 1015.2
20260902081402 17 246 4.8 6.4 0.00 0.00 0.00 59 1015.5
20260902080856 17 227 3.2 6.4 0.00 0.00 0.00 58 1015.2
20260902080353 17 250 9.7 12.9 0.00 0.00 0.00 58 1015.3
20260902075852 17 277 8.0 9.7 0.00 0.00 0.00 58 1015.2
20260902075348 17 251 6.4 8.0 0.00 0.00 0.00 57 1015.1
20260902074843 17 259 4.8 6.4 0.00 0.00 0.00 58 1015.0
20260902074339 17 248 8.0 11.3 0.00 0.00 0.00 57 1015.1
20260902073834 17 259 9.7 12.9 0.00 0.00 0.00 56 1015.0
20260902073330 17 263 9.7 11.3 0.00 0.00 0.00 57 1015.1
20260902072826 17 246 8.0 9.7 0.00 0.00 0.00 57 1015.1
20260902072321 17 242 8.0 11.3 0.00 0.00 0.00 56 1015.1
20260902071818 17 249 6.4 8.0 0.00 0.00 0.00 57 1015.0
20260902071312 17 266 9.7 11.3 0.00 0.00 0.00 56 1015.1
20260902070809 17 248 8.0 12.9 0.00 0.00 0.00 57 1015.1
20260902070308 17 276 8.0 11.3 0.00 0.00 0.00 56 1015.2
20260902065807 17 266 6.4 8.0 0.00 0.00 0.00 57 1014.9
20260902065306 17 254 6.4 8.0 0.00 0.00 0.00 56 1014.8
20260902064758 17 301 9.7 11.3 0.00 0.00 0.00 55 1014.9
20260902064254 18 224 1.6 3.2 0.00 0.00 0.00 55 1014.9
20260902063749 18 238 9.7 14.5 0.00 0.00 0.00 55 1014.8
20260902063243 18 285 4.8 6.4 0.00 0.00 0.00 55 1014.8
20260902062743 18 267 9.7 12.9 0.00 0.00 0.00 54 1014.7
20260902062238 18 162 4.8 8.0 0.00 0.00 0.00 55 1014.8
20260902061737 18 247 6.4 9.7 0.00 0.00 0.00 55 1014.9
20260902061233 18 269 6.4 8.0 0.00 0.00 0.00 54 1014.7
20260902060730 18 267 11.3 14.5 0.00 0.00 0.00 53 1014.6
20260902060225 18 243 4.8 8.0 0.00 0.00 0.00 55 1014.4
20260902055720 18 262 3.2 3.2 0.00 0.00 0.00 54 1014.7
20260902055217 18 248 9.7 12.9 0.00 0.00 0.00 54 1014.6
20260902054712 18 264 8.0 9.7 0.00 0.00 0.00 54 1014.6
20260902054207 18 296 4.8 6.4 0.00 0.00 0.00 55 1014.7
20260902053703 18 264 6.4 8.0 0.00 0.00 0.00 55 1014.6
20260902053202 18 286 8.0 9.7 0.00 0.00 0.00 55 1014.8
20260902052701 18 273 8.0 9.7 0.00 0.00 0.00 55 1014.8
20260902052157 18 280 4.8 6.4 0.00 0.00 0.00 55 1014.6
20260902051656 18 266 9.7 11.3 0.00 0.00 0.00 53 1014.7
20260902051151 19 261 8.0 11.3 0.00 0.00 0.00 52 1014.6
20260902050645 19 259 8.0 12.9 0.00 0.00 0.00 51 1014.5
20260902050141 19 299 9.7 12.9 0.00 0.00 0.00 51 1014.4
20260902045635 19 253 8.0 9.7 0.00 0.00 0.00 49 1014.4
20260902045131 20 241 8.0 9.7 0.00 0.00 0.00 49 1014.4
20260902044626 20 286 8.0 11.3 0.00 0.00 0.00 47 1014.4
20260902044123 20 291 6.4 8.0 0.00 0.00 0.00 46 1014.3
20260902043617 20 258 6.4 8.0 0.00 0.00 0.00 45 1014.2
20260902043112 20 259 4.8 8.0 0.00 0.00 0.00 46 1014.0
20260902042611 20 298 6.4 8.0 0.00 0.00 0.00 46 1014.1
20260902042108 20 257 4.8 8.0 0.00 0.00 0.00 45 1013.9
20260902041607 21 263 8.0 11.3 0.00 0.00 0.00 45 1013.9
20260902041101 21 240 9.7 12.9 0.00 0.00 0.00 45 1013.7
20260902040555 21 283 8.0 11.3 0.00 0.00 0.00 44 1013.9
20260902040050 21 267 4.8 8.0 0.00 0.00 0.00 44 1013.5
20260902035549 21 259 6.4 9.7 0.00 0.00 0.00 44 1013.5
20260902035045 21 274 4.8 8.0 0.00 0.00 0.00 45 1013.3
20260902034544 21 259 4.8 6.4 0.00 0.00 0.00 46 1013.4
20260902034043 21 271 1.6 1.6 0.00 0.00 0.00 49 1013.0
20260902033542 21 264 1.6 1.6 0.00 0.00 0.00 48 1013.1
20260902033037 21 104 0.0 0.0 0.00 0.00 0.00 48 1013.2
20260902032536 21 52 0.0 0.0 0.00 0.00 0.00 47 1012.9
20260902032031 21 54 0.0 0.0 0.00 0.00 0.00 47 1013.0
20260902031526 21 38 1.6 1.6 0.00 0.00 0.00 47 1012.8
20260902031022 21 265 0.0 1.6 0.00 0.00 0.00 48 1012.8
20260902030517 21 271 0.0 0.0 0.00 0.00 0.00 48 1012.9
20260902030016 22 282 1.6 1.6 0.00 0.00 0.00 47 1012.6
20260902025511 22 228 1.6 1.6 0.00 0.00 0.00 47 1012.6
20260902025006 22 31 0.0 0.0 0.00 0.00 0.00 46 1012.7
20260902024502 22 321 1.6 1.6 0.00 0.00 0.00 44 1012.7
20260902023956 22 48 0.0 0.0 0.00 0.00 0.00 44 1012.5
20260902023452 23 287 0.0 0.0 0.00 0.00 0.00 42 1012.5
20260902022951 23 250 1.6 1.6 0.00 0.00 0.00 41 1012.6
20260902022447 23 253 3.2 3.2 0.00 0.00 0.00 40 1012.5
20260902021942 23 267 6.4 8.0 0.00 0.00 0.00 38 1012.3
20260902021437 24 250 4.8 6.4 0.00 0.00 0.00 38 1012.7
20260902020932 24 264 4.8 6.4 0.00 0.00 0.00 37 1012.4
20260902020429 25 245 6.4 8.0 0.00 0.00 0.00 35 1012.3
20260902015924 25 266 6.4 8.0 0.00 0.00 0.00 34 1012.4
20260902015420 25 241 8.0 11.3 0.00 0.00 0.00 33 1012.3
20260902014915 25 280 3.2 3.2 0.00 0.00 0.00 33 1012.3
20260902014412 25 246 4.8 6.4 0.00 0.00 0.00 32 1012.2
20260902013910 25 281 4.8 6.4 0.00 0.00 0.00 31 1012.1
20260902013406 25 280 4.8 6.4 0.00 0.00 0.00 31 1012.0
20260902012901 25 256 4.8 8.0 0.00 0.00 0.00 30 1012.1
20260902012357 26 337 4.8 8.0 0.00 0.00 0.00 31 1012.0